Location: ???????
(55.3754°N, 39.3545°E)
Time: 11:38:26
(UTC+00:00)

Cosmos 1818 - Pass Details

Date: 14 April 2026
Orbit: 774 x 797 km, 65.0° (Epoch: 9 May)

Event Time Altitude Azimuth Distance (km) Brightness Sun altitude
Rises 22:08:39 0° 312° (NW) 3,311 7.2 -24.2°
Reaches altitude 10° 22:11:10 10° 307° (NW) 2,378 6.3 -24.2°
Enters shadow 22:15:46 44° 255° (WSW) 1,097 4.0 -24.0°
